Simultaneous Nadir Overpasses (SNOs) Predictions

Prediction of SNOs between AQUA and NOAA-19 Satellite Orbit:

Table of predicted SNOs for the next 14.0 days since TLE Epoch: 6/11/2022
Index Date (AQUA) Time (AQUA) Lat,Lon (AQUA) SZA (AQUA ) Date (NOAA-19) Time (NOAA-19) Lat,Lon (NOAA-19) SZA (NOAA-19 ) Distance(km) Time Diff (sec)
1 06/12/2022 14:06:21 -77.59, 132.13 125.10 06/12/2022 14:05:42 -77.61, 132.15 125.06 3.17 39
2 06/12/2022 14:55:49 77.64, -60.46 54.97 06/12/2022 14:56:46 77.64, -60.50 54.95 1.02 57
3 06/14/2022 19:39:41 77.58,-131.16 54.78 06/14/2022 19:38:43 77.59,-131.14 54.81 1.74 58
4 06/14/2022 20:29:08 -77.64, 36.21 125.14 06/14/2022 20:29:37 -77.64, 36.39 125.16 4.36 29
5 06/17/2022 02:02:27 77.60, 133.06 54.74 06/17/2022 02:02:38 77.62, 133.09 54.75 1.89 11
6 06/19/2022 07:35:45 -77.58,-130.16 125.34 06/19/2022 07:35:30 -77.58,-130.26 125.33 2.53 15
7 06/19/2022 08:25:19 77.91, 36.05 55.08 06/19/2022 08:26:26 77.91, 38.77 54.88 63.39 67
8 06/21/2022 13:09:04 77.56, -33.41 54.64 06/21/2022 13:08:30 77.58, -33.43 54.66 1.41 34
9 06/21/2022 13:58:31 -77.62, 133.98 125.29 06/21/2022 13:59:25 -77.59, 133.93 125.33 3.50 54
10 06/23/2022 18:42:22 -77.56, 63.30 125.34 06/23/2022 18:41:22 -77.53, 63.22 125.34 3.19 60



Historial Predications of SNOs between AQUA and NOAA-19
